TimeEST,TemperatureF,Dew PointF,Humidity,Sea Level PressureIn,VisibilityMPH,Wind Direction,Wind SpeedMPH,Gust SpeedMPH,PrecipitationIn,Events,Conditions,WindDirDegrees,DateUTC
12:00 AM,42.8,42.8,100,30.27,2.0,NNE,1.2,-,N/A,,Overcast,20,2013-12-08 05:00:00
12:25 AM,42.8,42.8,100,30.27,2.5,Calm,Calm,-,N/A,,Overcast,0,2013-12-08 05:25:00
12:40 AM,44.6,44.6,100,30.27,3.0,NNW,1.2,-,N/A,,Overcast,330,2013-12-08 05:40:00
12:45 AM,44.6,44.6,100,30.27,3.0,Calm,Calm,-,N/A,,Overcast,0,2013-12-08 05:45:00
12:51 AM,44.6,44.6,100,30.27,3.0,Calm,Calm,-,N/A,,Overcast,0,2013-12-08 05:51:00
12:58 AM,44.2,44.2,100,30.29,3.0,Calm,Calm,-,0.00,,Overcast,0,2013-12-08 05:58:00
1:03 AM,44.6,44.6,100,30.26,3.0,East,2.3,-,N/A,,Overcast,80,2013-12-08 06:03:00
1:08 AM,44.6,44.6,100,30.26,2.5,ENE,2.3,-,N/A,,Light Drizzle,60,2013-12-08 06:08:00
1:23 AM,44.6,44.6,100,30.24,2.0,East,5.8,-,N/A,,Light Drizzle,100,2013-12-08 06:23:00
1:33 AM,46.4,46.4,100,30.24,2.5,East,6.9,-,N/A,,Light Drizzle,90,2013-12-08 06:33:00
1:38 AM,46.4,46.4,100,30.25,3.0,East,10.4,-,N/A,,Light Drizzle,90,2013-12-08 06:38:00
1:43 AM,48.2,48.2,100,30.25,4.0,East,8.1,-,N/A,,Light Drizzle,90,2013-12-08 06:43:00
1:48 AM,48.2,48.2,100,30.25,5.0,East,6.9,-,N/A,,Light Drizzle,80,2013-12-08 06:48:00
1:58 AM,48.4,48.4,100,30.25,3.0,East,10.4,-,0.01,,Light Drizzle,80,2013-12-08 06:58:00
2:06 AM,48.2,48.2,100,30.25,4.0,East,11.5,-,N/A,,Overcast,80,2013-12-08 07:06:00
2:26 AM,48.2,48.2,100,30.24,6.0,East,10.4,-,N/A,,Overcast,80,2013-12-08 07:26:00
2:41 AM,48.2,48.2,100,30.24,8.0,East,9.2,-,N/A,,Overcast,80,2013-12-08 07:41:00
2:51 AM,48.2,48.2,100,30.25,10.0,East,10.4,-,N/A,,Overcast,80,2013-12-08 07:51:00
2:58 AM,47.7,47.7,100,30.27,10.0,East,9.2,-,0.01,,Overcast,80,2013-12-08 07:58:00
3:03 AM,48.2,48.2,100,30.25,8.0,East,10.4,-,N/A,,Overcast,80,2013-12-08 08:03:00
3:08 AM,48.2,48.2,100,30.25,6.0,East,10.4,-,N/A,,Overcast,80,2013-12-08 08:08:00
3:18 AM,48.2,48.2,100,30.25,4.0,ENE,9.2,-,N/A,,Overcast,70,2013-12-08 08:18:00
3:33 AM,48.2,48.2,100,30.25,5.0,East,9.2,-,N/A,,Overcast,80,2013-12-08 08:33:00
3:37 AM,46.4,46.4,100,30.24,4.0,East,10.4,-,N/A,,Light Drizzle,80,2013-12-08 08:37:00
3:47 AM,46.4,46.4,100,30.24,3.0,East,11.5,-,N/A,,Overcast,80,2013-12-08 08:47:00
3:58 AM,46.8,46.8,100,30.25,4.0,East,11.5,-,0.00,,Overcast,90,2013-12-08 08:58:00
4:18 AM,46.4,46.4,100,30.23,4.0,East,11.5,-,N/A,,Overcast,100,2013-12-08 09:18:00
4:28 AM,46.4,46.4,100,30.23,6.0,East,13.8,-,N/A,,Overcast,90,2013-12-08 09:28:00
4:33 AM,46.4,46.4,100,30.23,6.0,East,11.5,-,N/A,,Overcast,90,2013-12-08 09:33:00
4:53 AM,46.4,46.4,100,30.24,5.0,East,10.4,-,N/A,,Overcast,100,2013-12-08 09:53:00
4:58 AM,46.6,46.6,100,30.26,4.0,East,11.5,-,0.01,,Overcast,90,2013-12-08 09:58:00
5:23 AM,46.4,46.4,100,30.24,4.0,East,10.4,-,N/A,,Overcast,100,2013-12-08 10:23:00
5:33 AM,46.4,46.4,100,30.24,4.0,East,12.7,-,N/A,,Overcast,100,2013-12-08 10:33:00
5:48 AM,46.4,46.4,100,30.24,4.0,East,10.4,-,N/A,,Overcast,100,2013-12-08 10:48:00
5:53 AM,46.4,46.4,100,30.24,6.0,East,10.4,-,N/A,,Overcast,100,2013-12-08 10:53:00
5:58 AM,46.4,46.4,100,30.26,8.0,East,12.7,-,N/A,,Overcast,100,2013-12-08 10:58:00
6:03 AM,46.4,46.4,100,30.24,10.0,East,12.7,20.7,N/A,,Overcast,100,2013-12-08 11:03:00
6:08 AM,46.4,46.4,100,30.25,10.0,ESE,9.2,20.7,N/A,,Overcast,110,2013-12-08 11:08:00
6:33 AM,46.4,46.4,100,30.25,10.0,East,15.0,-,N/A,,Overcast,100,2013-12-08 11:33:00
6:43 AM,46.4,46.4,100,30.26,9.0,East,10.4,-,N/A,,Overcast,100,2013-12-08 11:43:00
6:45 AM,46.4,46.4,100,30.26,2.5,East,12.7,-,N/A,,Light Drizzle,90,2013-12-08 11:45:00
6:58 AM,46.0,45.9,99,30.28,2.5,East,10.4,-,N/A,,Light Drizzle,100,2013-12-08 11:58:00
7:23 AM,46.4,46.4,100,30.25,1.2,East,12.7,-,N/A,,Light Drizzle,80,2013-12-08 12:23:00
7:58 AM,46.4,44.6,93,30.28,3.0,ESE,11.5,-,0.10,Rain,Light Rain,110,2013-12-08 12:58:00
8:58 AM,45.5,45.3,99,30.27,5.0,East,12.7,19.6,0.02,,Light Drizzle,100,2013-12-08 13:58:00
9:30 AM,44.6,44.6,100,30.27,1.5,East,11.5,-,N/A,,Light Drizzle,100,2013-12-08 14:30:00
9:47 AM,44.6,44.6,100,30.28,1.5,East,11.5,-,N/A,,Overcast,100,2013-12-08 14:47:00
9:58 AM,45.1,45.0,99,30.29,1.5,ESE,13.8,-,0.00,,Overcast,110,2013-12-08 14:58:00
10:07 AM,44.6,44.6,100,30.27,1.0,East,9.2,-,N/A,,Light Drizzle,100,2013-12-08 15:07:00
10:18 AM,44.6,44.6,100,30.28,1.5,East,11.5,-,N/A,,Light Drizzle,100,2013-12-08 15:18:00
10:22 AM,44.6,44.6,100,30.28,1.2,East,11.5,-,N/A,,Light Drizzle,100,2013-12-08 15:22:00
10:31 AM,46.4,44.6,93,30.28,1.2,East,16.1,-,N/A,,Light Drizzle,100,2013-12-08 15:31:00
10:58 AM,45.5,45.3,99,30.30,1.2,East,10.4,-,0.00,,Light Drizzle,100,2013-12-08 15:58:00
11:58 AM,45.1,45.0,99,30.26,1.2,East,11.5,19.6,0.01,,Light Drizzle,80,2013-12-08 16:58:00
12:16 PM,44.6,44.6,100,30.22,3.0,East,11.5,-,N/A,,Light Drizzle,90,2013-12-08 17:16:00
12:48 PM,44.6,44.6,100,30.21,2.0,East,13.8,19.6,N/A,,Light Drizzle,100,2013-12-08 17:48:00
12:58 PM,45.3,45.1,99,30.22,2.0,East,15.0,19.6,N/A,,Light Drizzle,100,2013-12-08 17:58:00
1:29 PM,44.6,44.6,100,30.19,2.0,East,12.7,18.4,N/A,,Light Drizzle,90,2013-12-08 18:29:00
1:58 PM,45.1,45.0,99,30.19,2.0,East,10.4,-,0.00,,Light Drizzle,90,2013-12-08 18:58:00
2:09 PM,44.6,44.6,100,30.18,1.2,East,8.1,-,N/A,Rain,Light Rain,80,2013-12-08 19:09:00
2:45 PM,44.6,44.6,100,30.18,2.0,East,9.2,-,N/A,,Light Drizzle,90,2013-12-08 19:45:00
2:58 PM,44.8,44.6,99,30.19,2.0,East,9.2,-,0.02,,Light Drizzle,100,2013-12-08 19:58:00
3:15 PM,44.6,44.6,100,30.18,2.0,East,9.2,17.3,N/A,,Overcast,90,2013-12-08 20:15:00
3:25 PM,44.6,44.6,100,30.18,4.0,East,10.4,-,N/A,,Overcast,100,2013-12-08 20:25:00
3:58 PM,44.4,44.2,99,30.19,3.0,East,12.7,-,N/A,,Overcast,90,2013-12-08 20:58:00
4:13 PM,44.6,44.6,100,30.18,2.0,East,12.7,-,N/A,,Overcast,100,2013-12-08 21:13:00
4:50 PM,44.6,44.6,100,30.19,1.5,East,11.5,-,N/A,,Overcast,90,2013-12-08 21:50:00
4:58 PM,43.9,43.7,99,30.20,1.5,East,10.4,-,N/A,,Overcast,90,2013-12-08 21:58:00
5:39 PM,42.8,42.8,100,30.19,1.5,East,5.8,-,N/A,,Overcast,90,2013-12-08 22:39:00
5:58 PM,43.2,43.0,99,30.21,2.0,East,9.2,-,N/A,,Overcast,90,2013-12-08 22:58:00
6:10 PM,42.8,42.8,100,30.20,1.5,East,10.4,-,N/A,,Overcast,90,2013-12-08 23:10:00
6:12 PM,42.8,42.8,100,30.20,1.5,East,9.2,-,N/A,,Light Drizzle,90,2013-12-08 23:12:00
6:50 PM,42.8,42.8,100,30.21,2.0,East,8.1,-,N/A,,Overcast,90,2013-12-08 23:50:00
6:58 PM,42.8,42.8,100,30.24,2.0,East,8.1,-,0.00,,Overcast,100,2013-12-08 23:58:00
7:32 PM,42.8,42.8,100,30.22,2.0,East,10.4,-,N/A,,Overcast,90,2013-12-09 00:32:00
7:58 PM,42.4,42.3,99,30.24,2.0,East,10.4,-,N/A,,Overcast,100,2013-12-09 00:58:00
8:58 PM,42.3,42.1,99,30.22,2.0,East,11.5,-,N/A,,Overcast,90,2013-12-09 01:58:00
9:58 PM,41.7,41.5,99,30.21,2.0,ESE,15.0,20.7,N/A,,Overcast,110,2013-12-09 02:58:00
10:58 PM,41.2,41.0,99,30.23,2.0,East,6.9,-,N/A,,Overcast,80,2013-12-09 03:58:00
11:55 PM,40.6,40.5,99,30.20,6.0,East,12.7,20.7,0.00,Rain,Light Rain,100,2013-12-09 04:55:00